KLM55T EHAM-EHEH

Flight info

Callsign KLM55T
Flight time N/A
Altitude 7000
Route LOPIK
Aircraft A20N/M-SDE2E3FGHIRWXY/LB1

Departure

Time N/A
Airport Amsterdam Airport Schiphol (EHAM)

Arrival

Time 2026-05-04 01:11
Airport Eindhoven Airport (EHEH)
Time Latitude Longitude Altitude Speed Heading
2026-05-04 01:11 51.45453 5.37291 77 ft 0 kts 306°
2026-05-04 01:13 51.67576 5.33556 5139 ft 277 kts 122°
2026-05-04 01:13 51.50590 5.43720 1236 ft 119 kts 216°
2026-05-04 01:14 51.48472 5.41327 740 ft 119 kts 216°
2026-05-04 01:14 51.47845 5.40625 634 ft 119 kts 214°
2026-05-04 01:15 51.47170 5.39875 437 ft 119 kts 216°
2026-05-04 01:15 51.46505 5.39118 255 ft 119 kts 216°
2026-05-04 01:15 51.45825 5.38359 105 ft 119 kts 216°
2026-05-04 01:15 51.45232 5.37696 74 ft 119 kts 214°
2026-05-04 01:16 51.45011 5.37447 69 ft 119 kts 215°
2026-05-04 01:16 51.45796 5.38326 103 ft 119 kts 216°
2026-05-04 01:16 51.48261 5.41086 698 ft 119 kts 216°
2026-05-04 01:16 51.47567 5.40315 580 ft 119 kts 216°
2026-05-04 01:17 51.46903 5.39571 366 ft 119 kts 216°
2026-05-04 01:17 51.46220 5.38802 202 ft 119 kts 216°
2026-05-04 01:17 51.45559 5.38061 86 ft 119 kts 216°
2026-05-04 01:17 51.45106 5.37554 69 ft 119 kts 215°
2026-05-04 01:18 51.46139 5.38711 163 ft 119 kts 216°
2026-05-04 01:18 51.45477 5.37967 88 ft 119 kts 216°
2026-05-04 01:18 51.67236 5.34499 5111 ft 119 kts 123°
2026-05-04 01:18 51.67078 5.34939 5061 ft 119 kts 123°
2026-05-04 01:19 51.45698 5.38217 93 ft 119 kts 216°
2026-05-04 01:19 51.45453 5.37291 77 ft 119 kts 306°